Regional Weather Roundup
Issued by NWS

Home | Current Version | Previous Version | Graphics & Text | Print | Product List | Glossary On
Versions: 1 2 3 4 5 6 7 8 9 10 11 12 13 14 15 16 17 18 19 20 21 22 23 24 25 26 27 28 29 30 31 32 33 34 35 36 37 38 39 40 41 42 43 44 45 46 47 48 49 50
000
ASUS43 KIND 192300
RWRIN

WEATHER ROUNDUP FOR INDIANA
NATIONAL WEATHER SERVICE INDIANAPOLIS IN
700 PM EDT TUE SEP 19 2017

NOTE: "FAIR" INDICATES FEW OR NO CLOUDS BELOW 12,000 FEET WITH NO
SIGNIFICANT WEATHER AND/OR OBSTRUCTIONS TO VISIBILITY.

* - STATION DOES NOT REPORT WEATHER SUCH AS PRECIPITATION OR FOG.

+ - STATION NOT QUALITY CONTROLLED BY THE NATIONAL WEATHER SERVICE.
    USE DATA WITH CAUTION...ESPECIALLY DEWPOINT AND RELATIVE
    HUMIDITY OBSERVATIONS.

INZ001>003-010>013-019-020-200000-
NORTHWEST INDIANA

CITY           SKY/WX    TMP DP  RH WIND       PRES   REMARKS
GARY /AIRPORT/ PTCLDY    72  66  83 NE12      29.92F
KNOX *+        CLEAR     73  66  78 NE6       29.91S

$$

LMZ046-743>745-200000-
SOUTHERN LAKE MICHIGAN

STATION/POSITION TIME  TEMP    WIND        PRES    WAVE
                       AIR SEA DIR/SP/G            HT
                 (UTC) (F)     (DEG/KT/KT) (MB)    (FT)
BURNS HARBOR     2240   69      30/ 11/ 12 1013.5F
MICHIGAN CITY    2230   68      20/ 12/ 13   N/A
5NW MICH CITY    2250   69 69   40/ 10/ 14   N/A     1

$$

INZ004-005-014>016-021>024-200000-
NORTH CENTRAL INDIANA

CITY           SKY/WX    TMP DP  RH WIND       PRES   REMARKS
ELKHART        PTCLDY    72  64  78 E6        29.92F
GOSHEN         MOCLDY    72  64  76 NE5       29.92S
SOUTH BEND     CLOUDY    71  65  81 E3        29.93S

$$

INZ006>009-017-018-025>027-200000-
NORTHEAST INDIANA

CITY           SKY/WX    TMP DP  RH WIND       PRES   REMARKS
FORT WAYNE     CLOUDY    72  68  87 SE5       29.92S
KENDALLVILLE + CLOUDY    70  67  92 CALM      29.93S

$$

INZ028-029-035-036-043>045-051>053-200000-
WEST CENTRAL INDIANA

CITY           SKY/WX    TMP DP  RH WIND       PRES   REMARKS
LAFAYETTE      CLEAR     77  66  68 N3        29.90S
TERRE HAUTE    MOCLDY    82  64  54 W6        29.89R

$$

INZ030>032-037>040-046>048-054>057-064-065-200000-
CENTRAL INDIANA

CITY           SKY/WX    TMP DP  RH WIND       PRES   REMARKS
COLUMBUS       CLEAR     77  64  65 S9        29.92S
GREENWOOD *+   CLOUDY    81  68  63 W3        29.92S
INDIANAPOLIS   MOCLDY    78  65  63 CALM      29.91R
-EAGLE CREEK   MOCLDY    78  64  61 W3        29.90S
KOKOMO +       PTCLDY    77  65  66 NW7       29.93R
MT COMFORT *+    N/A    N/A N/A N/A MISG        N/A
SHELBYVILLE    LGT RAIN  76  68  76 SE5       29.91R

$$

INZ033-034-041-042-049-050-058-059-200000-
EAST CENTRAL INDIANA

CITY           SKY/WX    TMP DP  RH WIND       PRES   REMARKS
MUNCIE         CLOUDY    73  66  78 CALM      29.93R
RICHMOND +     PTCLDY    72  64  78 SE3       29.95S

$$

INZ060-061-067>069-081>083-085>088-200000-
SOUTHWEST INDIANA

CITY           SKY/WX    TMP DP  RH WIND       PRES   REMARKS
EVANSVILLE     PTCLDY    82  68  62 MISG      29.91R
HUNTINGBURG +    N/A    N/A N/A N/A MISG        N/A

$$

INZ062-063-066-070>080-084-089>092-200000-
SOUTH CENTRAL AND SOUTHEAST INDIANA

CITY           SKY/WX    TMP DP  RH WIND       PRES   REMARKS
BLOOMINGTON    PTCLDY    80  66  62 S8        29.91S
MADISON *+     CLEAR     73  64  73 S3        29.97S
SEYMOUR +      CLEAR     79  66  65 SE7       29.93R

$$





USA.gov is the U.S. government's official web portal to all federal, state and local government web resources and services.